RH
13 11 9 10 10 9 12 18 23 23 23 23 22 21 20 20 19 18 17 18 20 22 22 21 21 20 19 19 18 22 19 14 12 13 16 20 20 17 13 10 23 31 31 28 24 13 13
10 12 11 9 12 18 21 24 25 25 24 23 21 20 19 18 16 13 11 11 11 11 10 12 12 10 11 14 16 19 20 17 16 17 18 20 21 21 20 16 16 20 29 29 22 14 14
14 12 12 17 21 25 27 28 27 26 24 21 18 17 16 16 15 12 10 9 10 9 7 6 6 6 7 9 10 12 17 21 22 21 20 23 25 22 26 26 23 25 30 23 20 18 16
14 15 19 24 29 30 29 28 26 23 18 15 14 12 10 9 8 6 6 5 5 5 4 4 3 4 4 5 8 13 19 22 23 23 22 24 29 26 23 28 30 28 28 29 26 19 19
26 23 24 30 32 31 29 27 22 17 14 13 11 9 7 6 5 4 4 4 3 3 2 2 3 3 6 9 13 18 22 23 26 27 27 28 33 33 30 27 33 37 37 28 32 32 30
43 28 30 34 34 31 28 23 18 14 13 11 8 7 6 5 4 4 4 3 2 2 3 3 3 4 7 8 8 8 10 18 28 34 36 35 36 36 37 44 50 42 48 41 41 42 33
37 29 34 36 32 29 25 19 14 13 11 9 8 7 5 4 4 4 3 3 2 3 3 3 3 3 5 10 15 19 31 32 44 45 41 43 44 37 34 35 31 39 46 45 47 48 46
41 34 37 36 31 27 20 16 14 12 10 9 6 5 4 4 4 4 3 2 2 3 4 4 4 10 24 32 32 41 35 39 47 52 53 58 52 50 61 59 62 62 63 40 51 52 47
37 38 38 34 30 22 18 14 12 10 8 6 5 4 4 3 4 3 3 2 2 2 3 7 26 37 37 37 56 49 59 71 68 76 75 72 56 51 63 63 67 70 74 68 65 60 52
40 40 35 32 24 19 14 11 10 7 5 4 4 4 3 3 3 3 2 2 2 2 4 30 57 54 53 60 58 77 84 84 85 95 88 83 88 90 83 73 80 87 70 66 58 70 63
41 38 37 28 20 15 11 9 6 4 4 4 4 3 3 3 3 2 2 2 2 4 28 47 67 72 75 60 62 69 79 77 97 97 99 93 89 91 97 95 96 83 81 73 68 68 68
41 40 35 24 15 11 8 6 4 4 4 3 3 3 3 3 2 2 2 2 3 14 53 44 59 60 49 41 44 46 41 49 47 60 68 89 90 88 93 95 94 95 95 95 96 90 94
46 41 29 15 10 8 6 4 4 3 3 3 2 3 2 2 2 2 2 4 11 34 40 67 46 39 44 55 44 38 38 36 56 63 64 52 49 97 96 92 85 92 98 94 96 95 89
46 33 17 12 9 6 4 3 3 3 2 2 2 2 3 3 2 3 3 14 37 68 44 29 19 17 61 68 50 50 41 41 91 80 77 81 63 50 49 89 96 81 97 96 93 90 74
42 26 14 9 5 4 3 3 3 2 2 3 3 3 3 3 4 6 5 12 39 43 31 33 26 59 66 73 82 71 53 61 70 78 90 83 76 48 38 32 52 77 95 96 96 95 90
34 17 9 5 4 3 3 3 3 3 3 3 3 3 4 4 7 9 7 12 26 30 28 36 52 61 77 61 88 79 63 52 67 80 87 94 95 58 42 34 74 79 89 85 89 95 91
21 10 6 4 3 3 3 3 3 4 4 4 4 4 5 5 10 10 16 22 27 37 39 47 61 82 79 96 98 85 62 72 86 85 86 74 99 72 49 36 57 64 94 95 87 95 94
12 7 4 3 3 3 3 3 4 4 5 5 6 5 6 8 12 17 33 32 37 38 48 58 78 86 94 96 85 84 75 80 84 95 79 75 93 92 57 33 98 88 83 95 96 88 95
7 5 3 3 3 3 4 4 5 6 6 7 8 8 10 13 17 23 29 45 48 53 60 65 72 93 98 92 96 87 82 61 79 90 90 86 97 92 65 39 87 66 94 77 78 98 96
5 3 3 3 3 4 5 6 6 8 9 9 10 13 13 15 23 33 34 48 62 73 73 83 78 86 88 77 87 92 71 71 86 75 82 98 89 94 94 74 84 97 97 85 86 96 98
4 3 3 4 4 5 6 7 9 10 10 10 12 16 16 14 21 29 57 61 76 91 79 80 92 98 98 94 81 88 84 68 62 80 92 96 96 91 84 95 96 96 96 96 90 97 97
3 4 4 4 6 7 8 9 11 11 12 14 16 17 17 17 21 26 64 89 97 96 97 86 97 96 98 96 100 82 88 73 93 71 100 98 89 94 94 97 97 96 100 99 97 100 100
4 4 5 6 7 8 9 10 12 12 12 16 21 20 24 20 30 56 78 93 100 97 87 96 96 85 83 91 88 65 68 60 71 99 94 100 97 97 96 98 97 92 99 100 100 100 100
5 6 6 8 8 10 10 12 11 11 9 6 6 7 19 21 47 76 90 91 96 97 98 92 92 94 85 76 60 49 61 78 95 96 97 87 81 100 97 97 100 100 100 100 99 100 100
7 7 8 8 10 10 9 9 4 3 3 4 4 5 10 57 94 75 93 98 90 99 97 91 85 92 81 66 57 55 68 91 97 96 91 76 76 99 90 100 100 100 100 100 100 100 100
7 8 8 9 8 8 5 3 3 3 4 4 4 5 14 82 98 98 100 96 94 80 80 85 69 73 69 73 87 100 95 93 81 72 72 54 57 80 98 96 100 100 100 100 100 100 100
8 8 9 7 6 3 3 2 2 3 3 4 4 6 55 100 96 86 81 87 87 86 73 72 68 75 79 74 77 98 99 95 90 89 84 62 66 85 98 100 100 100 100 100 100 100 100
8 8 7 4 3 2 2 2 2 3 3 5 7 13 18 36 92 90 94 88 84 81 77 64 66 56 77 79 91 91 100 96 99 100 98 93 90 95 98 99 100 100 100 100 100 99 98
7 6 3 3 2 2 2 2 2 3 4 6 10 27 46 70 99 97 93 92 85 80 52 20 21 24 50 100 100 100 100 100 100 99 96 94 94 95 92 98 98 96 95 98 100 100 98
Wind_Speed
10 10 12 13 13 13 14 15 17 19 20 22 24 24 25 25 24 21 20 21 18 17 20 25 26 27 27 29 23 29 30 29 31 31 31 29 31 36 49 51 47 54 54 48 47 44 46
10 12 12 14 14 14 16 18 19 21 23 24 25 25 24 24 23 22 22 23 23 22 20 20 21 25 26 24 23 23 24 27 28 27 27 31 30 30 41 45 48 52 52 49 45 45 47
13 13 14 15 15 16 17 19 21 23 24 25 24 22 23 23 23 23 23 26 27 28 28 28 29 29 28 24 30 28 27 28 30 32 31 30 34 30 33 39 43 46 49 46 47 43 45
14 15 16 16 17 18 19 22 24 24 23 22 24 23 22 23 24 22 22 25 27 27 29 32 32 33 33 29 23 23 24 24 26 30 30 30 33 38 38 35 36 37 43 48 45 47 51
16 17 18 17 18 20 22 24 24 24 23 25 26 26 26 27 26 26 26 27 28 27 30 31 33 34 25 16 15 19 19 20 22 23 26 30 33 39 43 41 40 42 48 55 49 42 30
18 18 18 19 20 23 24 25 25 25 25 27 29 30 30 30 30 29 29 29 31 32 29 32 34 24 23 27 32 31 34 30 27 26 27 29 34 43 47 46 46 49 48 47 43 34 35
18 18 19 21 23 24 25 25 25 26 27 29 30 31 32 34 34 34 29 29 34 33 31 36 33 38 32 26 23 18 23 25 25 29 33 31 39 56 52 56 58 47 27 41 38 30 30
19 20 21 21 23 24 24 26 27 28 29 31 30 31 33 34 36 36 38 36 37 38 43 26 29 25 21 21 13 14 15 20 24 29 29 34 50 44 42 41 47 51 50 65 44 36 31
19 20 22 23 24 24 25 27 29 30 30 31 34 31 34 35 37 37 35 37 39 39 36 21 15 15 17 15 15 13 12 12 23 26 27 37 32 12 22 31 43 48 54 52 42 35 38
19 21 23 24 24 24 26 28 30 31 32 32 35 38 34 35 35 32 33 36 36 32 23 12 8 9 13 14 10 13 14 17 16 19 21 26 23 31 35 43 36 39 37 46 48 35 34
20 22 23 24 25 26 27 28 30 32 34 35 35 38 39 38 36 35 37 34 28 23 5 11 11 13 17 21 19 14 15 15 16 24 24 20 19 19 23 21 20 34 28 32 30 33 34
21 23 25 25 26 28 28 29 30 31 34 36 38 39 39 38 37 36 32 30 17 5 6 5 10 16 29 30 30 32 28 25 27 24 20 24 20 24 29 32 34 21 21 24 23 29 11
22 23 24 26 27 29 30 31 32 34 36 37 39 39 40 39 37 33 29 14 8 3 9 11 24 36 34 29 31 28 29 30 16 15 19 29 24 10 11 20 13 10 17 4 7 7 7
23 24 25 26 27 28 30 32 34 35 36 38 38 38 38 35 35 29 21 8 1 8 19 23 31 31 14 21 29 29 30 25 7 16 18 11 13 16 21 19 16 29 17 7 5 6 2
24 24 25 26 26 29 31 32 34 35 36 35 36 36 33 32 30 25 20 5 5 11 16 24 27 16 17 24 19 25 25 10 12 17 12 7 10 28 14 24 16 16 18 23 11 25 14
24 24 24 24 28 30 31 32 33 35 35 35 35 37 30 30 25 23 19 9 6 10 16 17 14 11 22 28 21 23 18 12 17 11 18 17 21 16 25 20 1 15 21 11 11 5 7
24 24 24 26 28 29 31 32 32 33 34 33 35 36 29 29 25 22 20 10 8 10 14 14 15 19 19 20 20 25 15 20 8 22 18 23 13 16 27 23 27 22 3 6 7 7 2
23 22 24 26 28 30 31 32 33 34 31 32 35 33 29 23 22 23 20 16 14 14 12 14 15 11 12 22 23 19 16 17 17 23 25 19 11 17 27 18 8 11 20 17 2 5 6
21 22 24 25 26 28 30 33 35 35 36 38 37 30 29 20 24 22 19 15 15 16 16 18 20 13 15 25 17 15 19 27 20 17 26 22 6 8 12 9 8 21 18 22 20 22 2
21 22 23 24 26 28 30 32 33 33 35 37 36 28 30 19 26 23 23 19 17 16 16 20 16 14 24 32 20 20 33 19 28 30 12 11 18 15 14 22 24 23 24 17 15 6 4
19 21 22 24 27 29 30 31 31 33 35 36 35 32 28 29 24 24 20 20 20 19 22 19 24 17 26 29 33 19 28 37 31 21 8 19 25 26 28 23 23 10 6 7 2 6 2
19 20 22 26 29 30 31 31 32 33 35 34 32 33 34 31 28 27 24 20 20 20 22 21 27 27 24 24 19 37 34 29 34 30 28 26 24 22 22 16 12 10 6 7 15 21 21
19 21 24 27 29 30 31 33 35 36 37 37 34 33 34 34 31 30 27 30 25 23 19 25 25 31 27 26 30 26 31 27 20 24 18 16 12 12 3 12 14 6 19 13 12 9 7
20 23 25 28 29 30 32 34 36 37 38 36 34 33 31 32 28 27 28 27 28 27 28 21 23 23 25 26 27 20 14 8 2 2 12 17 18 8 1 9 4 6 6 11 12 11 12
21 23 26 28 29 32 33 35 36 36 35 33 32 30 25 24 23 23 26 31 28 19 25 25 19 21 22 25 25 13 5 3 6 12 18 22 15 7 3 9 9 3 5 6 4 4 5
21 24 26 28 30 32 34 35 35 35 33 30 30 27 21 16 17 24 25 20 23 36 26 18 20 17 19 17 13 7 4 11 7 11 13 21 16 8 4 4 2 8 6 3 3 4 5
22 24 26 28 30 32 33 34 34 32 31 29 28 23 13 12 17 24 26 28 27 21 23 24 26 17 17 14 10 6 5 12 9 16 25 26 20 19 14 6 3 10 5 3 3 4 8
21 24 25 28 30 31 33 32 31 30 28 26 25 22 15 12 16 19 22 18 18 23 25 25 20 20 14 14 7 7 6 10 8 12 15 15 13 11 7 3 1 11 4 3 4 10 12
21 23 26 28 30 31 30 29 27 25 24 22 21 18 14 7 13 14 14 21 24 28 28 24 20 17 10 8 8 5 8 7 11 7 15 9 10 7 7 6 9 11 10 9 11 14 15
Wind_Direction
335 338 339 342 342 339 339 340 342 342 338 335 332 330 331 332 336 338 337 333 330 318 304 298 297 294 290 289 301 283 277 274 274 274 270 257 256 254 248 249 248 251 255 260 262 263 262
337 337 340 337 338 340 344 344 343 338 336 335 333 334 336 337 338 338 336 332 327 323 317 309 305 304 300 302 291 281 280 275 272 264 257 258 258 263 253 250 248 257 261 262 261 261 266
337 339 338 339 341 343 342 338 336 337 337 334 334 337 335 337 338 336 333 327 325 324 320 315 309 303 299 300 290 286 278 272 268 268 262 253 250 248 252 248 250 251 256 258 256 257 260
336 336 336 337 340 340 338 336 335 337 337 334 337 340 337 334 333 332 327 321 317 319 316 313 310 305 306 298 287 276 270 271 269 265 261 251 245 243 243 243 245 249 254 259 265 259 257
333 332 333 336 339 337 335 334 336 339 339 338 338 338 336 331 332 331 327 322 318 319 321 316 310 308 305 286 274 275 273 266 261 259 252 244 242 243 239 239 249 251 253 254 261 253 258
328 331 332 337 337 335 335 336 338 339 340 338 338 336 333 330 331 331 328 325 322 323 330 317 314 309 301 288 276 272 278 272 264 257 253 241 236 238 232 226 229 236 241 249 252 259 252
327 329 332 336 336 335 337 337 338 339 340 337 336 334 332 331 332 331 331 325 326 324 332 318 310 303 295 285 298 280 274 263 257 256 248 246 240 238 240 241 252 248 256 255 257 258 253
325 328 331 334 335 336 335 337 337 338 337 336 336 335 334 332 331 332 332 333 333 329 327 312 296 288 290 302 306 292 287 277 267 258 257 250 248 250 249 253 252 250 254 256 260 260 258
326 328 329 335 337 336 336 336 335 335 337 337 334 337 333 333 332 333 333 333 331 328 323 309 286 283 303 313 305 301 296 281 273 261 257 252 254 248 252 264 258 255 253 259 263 267 266
326 329 333 336 337 336 337 335 335 337 337 338 336 334 336 334 331 334 334 331 329 322 311 297 287 312 287 312 283 315 300 298 264 279 276 269 281 272 272 268 267 263 261 264 266 261 256
328 332 334 337 335 337 337 336 338 338 337 337 337 334 334 337 338 338 335 334 326 315 320 299 282 277 312 332 309 277 315 310 291 264 260 254 264 267 278 280 303 272 274 264 272 258 253
330 334 334 334 335 336 336 339 338 337 337 336 336 338 339 340 342 340 339 334 318 294 253 257 282 298 312 311 316 316 313 293 298 297 288 292 312 312 299 279 274 262 261 270 267 258 232
330 331 332 335 337 336 337 337 338 338 337 339 341 344 344 344 346 344 348 321 308 199 302 302 319 321 329 323 328 340 345 344 346 332 321 308 290 301 300 327 284 262 256 244 224 209 237
331 333 335 336 336 335 336 337 337 338 341 343 348 350 348 345 346 351 1 344 255 315 316 317 321 321 332 334 335 336 335 335 330 336 337 336 322 323 310 336 316 313 283 248 255 206 180
332 333 334 335 334 335 337 337 338 341 344 348 349 351 348 345 352 358 5 15 0 323 318 325 333 330 325 325 335 336 337 328 322 328 338 317 280 318 326 322 297 295 291 305 282 249 259
330 332 332 333 334 335 336 339 342 343 345 347 348 352 349 350 355 357 3 36 354 327 326 327 327 317 318 328 329 335 333 335 325 328 323 315 294 317 322 340 321 308 312 323 329 298 251
330 331 332 334 332 334 338 340 342 345 346 346 346 351 353 348 352 352 12 10 342 334 331 330 322 310 314 329 322 325 315 330 325 324 326 324 281 296 320 325 321 309 320 327 312 281 287
329 328 332 331 333 337 337 339 344 344 346 344 347 355 355 349 351 1 1 344 333 331 339 340 326 324 320 326 323 315 308 312 313 313 322 323 295 293 301 320 274 342 342 334 237 284 275
325 327 330 331 336 336 339 342 343 344 345 345 347 353 356 350 353 350 350 344 334 333 341 331 328 319 326 325 319 299 306 317 304 297 314 305 271 288 302 315 241 327 321 319 312 283 23
323 327 328 332 334 337 339 340 342 343 342 342 343 346 349 344 343 342 341 339 336 338 342 339 339 313 320 319 321 294 308 306 307 316 302 280 285 282 263 281 296 295 307 313 297 292 101
321 324 328 333 333 335 338 338 341 340 338 339 342 337 340 334 333 333 329 330 334 337 342 347 335 320 320 319 320 312 312 310 310 324 281 295 291 295 290 285 273 269 329 9 3 311 163
321 325 328 331 332 334 335 338 338 337 337 337 336 334 327 331 329 327 334 335 331 331 326 328 332 331 322 313 306 311 317 313 304 313 307 299 290 299 288 276 228 106 89 82 88 88 102
319 324 329 329 330 333 336 337 335 336 338 336 334 330 326 330 331 330 331 330 322 323 317 328 328 324 332 327 319 319 311 308 298 306 313 310 298 296 244 234 172 63 36 54 73 97 111
318 325 326 328 331 335 336 335 335 337 337 335 333 329 326 324 328 328 325 326 324 316 303 323 324 328 327 326 328 331 316 333 228 54 37 0 348 319 151 168 44 143 55 61 65 82 92
319 323 326 329 334 335 335 335 336 336 337 335 330 329 325 325 317 321 316 317 327 334 338 342 348 331 337 331 337 348 356 354 310 359 9 3 0 327 36 58 122 190 271 294 239 38 75
321 324 328 332 333 334 336 337 337 336 338 335 330 331 333 332 309 303 323 329 336 334 348 354 347 339 336 337 349 332 338 351 317 333 333 2 0 20 57 98 152 342 304 212 205 241 350
323 327 331 333 335 337 338 338 338 339 338 336 333 333 344 310 288 310 316 337 343 351 349 348 345 352 352 359 346 346 342 343 343 352 351 357 6 35 35 76 95 17 16 189 231 292 328
326 330 334 336 338 339 339 340 342 342 341 340 341 345 334 303 299 317 334 347 349 349 352 347 354 342 345 357 8 351 327 350 351 13 4 12 2 12 9 47 22 12 1 295 295 305 317
331 335 337 340 339 341 342 346 348 347 353 356 359 8 4 1 308 331 351 350 359 352 341 342 338 338 325 328 331 327 313 356 5 25 11 1 19 350 353 333 332 345 341 325 316 312 308